,,Stat1,,Stat2,,Stat3,,Stat4,,Wind1,,Wind1,
time,status,PR1M_SUM,status,RH1M_AVG,status,SR1M_AVG,status,TA1M_AVG,status,W1dAve1m,status,W1sAve1m,
1999-09-27, 00:01:00,VALID,0,VALID,97.8754,VALID,-0.0509425,VALID,19.2515,VALID,136,VALID,1.08918,
1999-09-27, 00:02:01,VALID,0,VALID,97.8729,VALID,0,VALID,19.2321,VALID,140,VALID,1.01049,
1999-09-27, 00:03:00,VALID,0,VALID,97.8474,VALID,-0.0169808,VALID,19.2358,VALID,152,VALID,0.939189,
1999-09-27, 00:04:00,VALID,0,VALID,97.822,VALID,0,VALID,19.2196,VALID,160,VALID,0.734375,
1999-09-27, 00:05:00,VALID,0,VALID,97.7025,VALID,0,VALID,19.1997,VALID,172,VALID,0.926943,
1999-09-27, 00:06:00,VALID,0,VALID,97.6363,VALID,0.0169808,VALID,19.2127,VALID,171,VALID,0.815304,
1999-09-27, 00:07:00,VALID,0,VALID,97.6961,VALID,-0.0169808,VALID,19.2256,VALID,154,VALID,0.936022,
1999-09-27, 00:08:00,VALID,0,VALID,97.6452,VALID,0,VALID,19.2196,VALID,180,VALID,0.684333,
1999-09-27, 00:09:00,VALID,0,VALID,97.4825,VALID,0,VALID,19.1903,VALID,203,VALID,1.42331,
1999-09-27, 00:10:00,VALID,0,VALID,97.2561,VALID,0,VALID,19.2159,VALID,199,VALID,1.07612,
1999-09-27, 00:11:00,VALID,0,VALID,97.059,VALID,-0.0169808,VALID,19.2612,VALID,186,VALID,1.07754,
1999-09-27, 00:12:00,VALID,0,VALID,96.7437,VALID,-0.0169808,VALID,19.2873,VALID,190,VALID,1.25633,
1999-09-27, 00:13:01,VALID,0,VALID,96.5695,VALID,0.0169808,VALID,19.3005,VALID,185,VALID,1.02905,
1999-09-27, 00:14:00,VALID,0,VALID,96.5415,VALID,0,VALID,19.3132,VALID,172,VALID,1.08488,
1999-09-27, 00:15:00,VALID,0,VALID,96.3635,VALID,0.0169808,VALID,19.303,VALID,186,VALID,1.00762,
1999-09-27, 00:16:00,VALID,0,VALID,96.3571,VALID,0,VALID,19.3231,VALID,181,VALID,1.01014,
1999-09-27, 00:17:00,VALID,0,VALID,96.1854,VALID,-0.0169808,VALID,19.3231,VALID,212,VALID,0.97516,
1999-09-27, 00:18:00,VALID,0,VALID,96.263,VALID,0,VALID,19.3258,VALID,201,VALID,0.733742,
1999-09-27, 00:19:00,VALID,0,VALID,96.2795,VALID,-0.0169808,VALID,19.3231,VALID,189,VALID,0.720508,
1999-09-27, 00:20:00,VALID,0,VALID,96.3393,VALID,-0.0339617,VALID,19.3296,VALID,192,VALID,0.956503,
1999-09-27, 00:21:00,VALID,0,VALID,96.3291,VALID,-0.0339617,VALID,19.3069,VALID,180,VALID,0.817909,
1999-09-27, 00:22:00,VALID,0,VALID,96.202,VALID,-0.0339617,VALID,19.3166,VALID,197,VALID,0.573691,
1999-09-27, 00:23:00,VALID,0,VALID,96.0888,VALID,-0.0339617,VALID,19.3266,VALID,215,VALID,0.786719,
1999-09-27, 00:24:00,VALID,0,VALID,95.9972,VALID,-0.0169808,VALID,19.3462,VALID,224,VALID,0.751689,
1999-09-27, 00:25:00,VALID,0,VALID,96.305,VALID,-0.0339617,VALID,19.3718,VALID,227,VALID,0.380208,
1999-09-27, 00:26:00,VALID,0,VALID,96.1689,VALID,-0.0339617,VALID,19.3552,VALID,233,VALID,0.780828,
1999-09-27, 00:27:00,VALID,0,VALID,96.0125,VALID,0,VALID,19.3443,VALID,244,VALID,0.655859,
1999-09-27, 00:28:00,VALID,0,VALID,96.2884,VALID,0.0169808,VALID,19.3875,VALID,215,VALID,0.0945946,
1999-09-27, 00:29:00,VALID,0,VALID,96.4627,VALID,0.0169808,VALID,19.3674,VALID,224,VALID,0,
1999-09-27, 00:30:00,VALID,0,VALID,96.3457,VALID,0.0339617,VALID,19.3671,VALID,292,VALID,0.146537,
1999-09-27, 00:31:00,VALID,0,VALID,96.0227,VALID,0.0509425,VALID,19.393,VALID,299,VALID,0.210938,
1999-09-27, 00:32:00,VALID,0,VALID,96.0646,VALID,0.0169808,VALID,19.4122,VALID,236,VALID,0,
1999-09-27, 00:33:00,VALID,0,VALID,95.9655,VALID,0.0509425,VALID,19.4189,VALID,249,VALID,0,
1999-09-27, 00:34:00,VALID,0,VALID,96.2401,VALID,0.0339617,VALID,19.4186,VALID,251,VALID,0,
1999-09-27, 00:35:00,VALID,0,VALID,96.3482,VALID,0.0169808,VALID,19.403,VALID,252,VALID,0,
1999-09-27, 00:36:00,VALID,0,VALID,96.3596,VALID,0.0679233,VALID,19.3634,VALID,257,VALID,0.846706,
1999-09-27, 00:37:00,VALID,0,VALID,96.511,VALID,0.0509425,VALID,19.3604,VALID,249,VALID,0.726162,
1999-09-27, 00:38:00,VALID,0,VALID,96.4665,VALID,0.0339617,VALID,19.3415,VALID,253,VALID,0.856208,
1999-09-27, 00:39:00,VALID,0,VALID,96.5084,VALID,0.0509425,VALID,19.348,VALID,260,VALID,1.10664,
1999-09-27, 00:40:00,VALID,0,VALID,96.3202,VALID,0,VALID,19.3579,VALID,248,VALID,0.914485,
1999-09-27, 00:41:00,VALID,0,VALID,96.2071,VALID,0.0339617,VALID,19.3865,VALID,242,VALID,0.714543,
1999-09-27, 00:42:00,VALID,0,VALID,96.1702,VALID,-0.0679233,VALID,19.4141,VALID,266,VALID,0.383868,
1999-09-27, 00:43:00,VALID,0,VALID,96.2007,VALID,-0.0169808,VALID,19.4395,VALID,286,VALID,0.134375,
1999-09-27, 00:44:00,VALID,0,VALID,96.4016,VALID,-0.0509425,VALID,19.4527,VALID,284,VALID,0,
1999-09-27, 00:45:01,VALID,0,VALID,96.6966,VALID,-0.0849042,VALID,19.4494,VALID,218,VALID,0,
1999-09-27, 00:46:00,VALID,0,VALID,96.5529,VALID,-0.0339617,VALID,19.4104,VALID,238,VALID,0.437078,
1999-09-27, 00:47:00,VALID,0,VALID,96.3673,VALID,-0.0509425,VALID,19.4106,VALID,265,VALID,0.519531,
1999-09-27, 00:48:00,VALID,0,VALID,96.3355,VALID,-0.0509425,VALID,19.4174,VALID,234,VALID,0.612965,
1999-09-27, 00:49:00,VALID,0,VALID,96.1905,VALID,-0.0679233,VALID,19.4203,VALID,221,VALID,0.714944,
1999-09-27, 00:50:00,VALID,0,VALID,96.0278,VALID,-0.101885,VALID,19.443,VALID,225,VALID,0.864443,
1999-09-27, 00:51:00,VALID,0,VALID,95.701,VALID,-0.0679233,VALID,19.4758,VALID,236,VALID,0.567773,
1999-09-27, 00:52:00,VALID,0,VALID,95.411,VALID,-0.0849042,VALID,19.5047,VALID,212,VALID,0.322846,
1999-09-27, 00:53:00,VALID,0,VALID,95.5306,VALID,-0.101885,VALID,19.54,VALID,207,VALID,0.235577,
1999-09-27, 00:54:00,VALID,0,VALID,95.1783,VALID,-0.0679233,VALID,19.5432,VALID,214,VALID,0.717272,
1999-09-27, 00:55:00,VALID,0,VALID,95.1593,VALID,-0.0509425,VALID,19.5788,VALID,190,VALID,0.443555,
1999-09-27, 00:56:00,VALID,0,VALID,95.3831,VALID,-0.0509425,VALID,19.5979,VALID,208,VALID,0.21136,
1999-09-27, 00:57:01,VALID,0,VALID,95.8942,VALID,-0.0339617,VALID,19.5922,VALID,152,VALID,0.36238,
1999-09-27, 00:58:00,VALID,0,VALID,96.029,VALID,-0.0169808,VALID,19.5497,VALID,154,VALID,0.0382179,
1999-09-27, 00:59:00,VALID,0,VALID,95.982,VALID,-0.0679233,VALID,19.5109,VALID,174,VALID,0.377344,
1999-09-27, 01:00:00,VALID,0,VALID,96.3736,VALID,-0.0339617,VALID,19.4684,VALID,130,VALID,0.634291,
1999-09-27, 01:01:00,VALID,0,VALID,96.6178,VALID,-0.0679233,VALID,19.4171,VALID,164,VALID,0.100361,
1999-09-27, 01:02:00,VALID,0,VALID,96.8886,VALID,-0.0509425,VALID,19.3674,VALID,141,VALID,0.263302,
1999-09-27, 01:03:00,VALID,0,VALID,97.0412,VALID,-0.0339617,VALID,19.3423,VALID,147,VALID,0.580078,
1999-09-27, 01:04:00,VALID,0,VALID,97.1786,VALID,-0.0339617,VALID,19.3166,VALID,146,VALID,0.777449,
1999-09-27, 01:05:00,VALID,0,VALID,97.265,VALID,-0.0339617,VALID,19.2709,VALID,153,VALID,0.508814,
1999-09-27, 01:06:00,VALID,0,VALID,97.3553,VALID,-0.0679233,VALID,19.2482,VALID,179,VALID,0.113387,
1999-09-27, 01:07:00,VALID,0,VALID,97.4647,VALID,-0.0169808,VALID,19.2584,VALID,217,VALID,0.0117188,
1999-09-27, 01:08:01,VALID,0,VALID,97.5092,VALID,-0.0339617,VALID,19.2485,VALID,184,VALID,0.175042,
1999-09-27, 01:09:00,VALID,0,VALID,97.6389,VALID,-0.0169808,VALID,19.2679,VALID,119,VALID,0.664663,
1999-09-27, 01:10:00,VALID,0,VALID,97.6999,VALID,-0.0679233,VALID,19.2418,VALID,133,VALID,0.385557,
1999-09-27, 01:11:00,VALID,0,VALID,97.7215,VALID,-0.0509425,VALID,19.2298,VALID,140,VALID,0.0234375,
1999-09-27, 01:12:00,VALID,0,VALID,97.7813,VALID,-0.0849042,VALID,19.1908,VALID,140,VALID,0,
1999-09-27, 01:13:00,VALID,0,VALID,97.8932,VALID,-0.0169808,VALID,19.1744,VALID,140,VALID,0.0242388,
1999-09-27, 01:14:00,VALID,0,VALID,97.9746,VALID,-0.0339617,VALID,19.1644,VALID,152,VALID,0.833404,
1999-09-27, 01:15:00,VALID,0,VALID,97.9517,VALID,-0.0339617,VALID,19.1455,VALID,182,VALID,0.598828,
1999-09-27, 01:16:00,VALID,0,VALID,97.8271,VALID,0,VALID,19.158,VALID,188,VALID,0.588682,
1999-09-27, 01:17:00,VALID,0,VALID,97.7482,VALID,-0.0339617,VALID,19.2099,VALID,99,VALID,0.28105,
1999-09-27, 01:18:00,VALID,0,VALID,97.5575,VALID,-0.101885,VALID,19.2492,VALID,146,VALID,0,
1999-09-27, 01:19:01,VALID,0,VALID,97.485,VALID,-0.0849042,VALID,19.2716,VALID,154,VALID,0.0152344,
1999-09-27, 01:20:00,VALID,0,VALID,97.2714,VALID,-0.0509425,VALID,19.2813,VALID,194,VALID,0.3731,
1999-09-27, 01:21:00,VALID,0,VALID,97.1887,VALID,-0.0849042,VALID,19.2875,VALID,241,VALID,0.561699,
1999-09-27, 01:22:00,VALID,0,VALID,96.9878,VALID,-0.0679233,VALID,19.3268,VALID,253,VALID,0.447846,
1999-09-27, 01:23:00,VALID,0,VALID,96.8111,VALID,-0.0679233,VALID,19.3559,VALID,301,VALID,0.342969,
1999-09-27, 01:24:00,VALID,0,VALID,96.6992,VALID,-0.0679233,VALID,19.3942,VALID,234,VALID,0.469806,
1999-09-27, 01:25:00,VALID,0,VALID,96.6305,VALID,-0.0339617,VALID,19.4136,VALID,204,VALID,0.339543,
1999-09-27, 01:26:00,VALID,0,VALID,96.4906,VALID,-0.0849042,VALID,19.4261,VALID,203,VALID,0.315456,
1999-09-27, 01:27:00,VALID,0,VALID,96.0888,VALID,-0.0679233,VALID,19.4557,VALID,210,VALID,1.2457,
1999-09-27, 01:28:00,VALID,0,VALID,95.7289,VALID,-0.0849042,VALID,19.5435,VALID,147,VALID,1.05532,
1999-09-27, 01:29:01,VALID,0,VALID,95.4746,VALID,-0.101885,VALID,19.6181,VALID,167,VALID,0.796074,
1999-09-27, 01:30:00,VALID,0,VALID,95.3831,VALID,-0.0849042,VALID,19.6141,VALID,233,VALID,0.324113,
1999-09-27, 01:31:00,VALID,0,VALID,95.2902,VALID,-0.101885,VALID,19.6243,VALID,316,VALID,0.801562,
1999-09-27, 01:32:00,VALID,0,VALID,95.3792,VALID,-0.0849042,VALID,19.6435,VALID,187,VALID,0.583404,
1999-09-27, 01:33:00,VALID,0,VALID,95.4492,VALID,-0.0679233,VALID,19.6504,VALID,294,VALID,0.773638,
1999-09-27, 01:34:00,VALID,0,VALID,95.2292,VALID,-0.101885,VALID,19.6303,VALID,273,VALID,0.59734,
1999-09-27, 01:35:00,VALID,0,VALID,95.2355,VALID,-0.0679233,VALID,19.6527,VALID,246,VALID,0.877734,
1999-09-27, 01:36:00,VALID,0,VALID,94.938,VALID,-0.0849042,VALID,19.6656,VALID,219,VALID,1.60684,
1999-09-27, 01:37:00,VALID,0,VALID,94.9927,VALID,-0.0849042,VALID,19.7047,VALID,249,VALID,1.00881,
1999-09-27, 01:38:00,VALID,0,VALID,95.1516,VALID,-0.0679233,VALID,19.6947,VALID,307,VALID,0.725718,
1999-09-27, 01:39:00,VALID,0,VALID,95.3157,VALID,-0.0679233,VALID,19.6855,VALID,291,VALID,0.708594,
1999-09-27, 01:40:00,VALID,0,VALID,95.7213,VALID,-0.0509425,VALID,19.6594,VALID,279,VALID,0.156672,
1999-09-27, 01:41:01,VALID,0,VALID,95.7798,VALID,-0.0509425,VALID,19.6203,VALID,298,VALID,0.653045,
1999-09-27, 01:42:00,VALID,0,VALID,95.9667,VALID,-0.0509425,VALID,19.5815,VALID,307,VALID,0.451014,
1999-09-27, 01:43:00,VALID,0,VALID,96.2961,VALID,-0.0679233,VALID,19.5395,VALID,261,VALID,0.221484,
1999-09-27, 01:44:00,VALID,0,VALID,96.6572,VALID,-0.0339617,VALID,19.5074,VALID,320,VALID,0.400549,
1999-09-27, 01:45:00,VALID,0,VALID,97.0717,VALID,-0.0339617,VALID,19.4559,VALID,339,VALID,0.015024,
1999-09-27, 01:46:00,VALID,0,VALID,97.3757,VALID,-0.0679233,VALID,19.3942,VALID,13,VALID,0.0158361,
1999-09-27, 01:47:00,VALID,0,VALID,97.6313,VALID,-0.0509425,VALID,19.3651,VALID,105,VALID,0.315625,
1999-09-27, 01:48:00,VALID,0,VALID,97.8436,VALID,-0.0849042,VALID,19.336,VALID,76,VALID,0.204603,
1999-09-27, 01:49:00,VALID,0,VALID,97.9606,VALID,-0.0679233,VALID,19.3037,VALID,150,VALID,0.213942,
1999-09-27, 01:50:00,VALID,0,VALID,98.1335,VALID,-0.101885,VALID,19.2908,VALID,222,VALID,0.0396959,
1999-09-27, 01:51:00,VALID,0,VALID,98.1615,VALID,-0.0679233,VALID,19.2681,VALID,126,VALID,0.884766,
1999-09-27, 01:52:01,VALID,0,VALID,98.07,VALID,-0.0849042,VALID,19.2644,VALID,112,VALID,1.13514,
1999-09-27, 01:53:00,VALID,0,VALID,97.8551,VALID,-0.0679233,VALID,19.284,VALID,105,VALID,1.01502,
1999-09-27, 01:54:00,VALID,0,VALID,97.78,VALID,-0.101885,VALID,19.294,VALID,96,VALID,0.954392,
1999-09-27, 01:55:00,VALID,0,VALID,97.7699,VALID,-0.0679233,VALID,19.2709,VALID,110,VALID,0.470313,
1999-09-27, 01:56:00,VALID,0,VALID,97.7635,VALID,-0.0509425,VALID,19.2418,VALID,92,VALID,0.52576,
1999-09-27, 01:57:00,VALID,0,VALID,97.8411,VALID,-0.0509425,VALID,19.2229,VALID,83,VALID,0.51863,
1999-09-27, 01:58:00,VALID,0,VALID,97.9161,VALID,-0.0849042,VALID,19.2039,VALID,86,VALID,0.341005,
1999-09-27, 01:59:00,VALID,0,VALID,97.9682,VALID,-0.0679233,VALID,19.1711,VALID,98,VALID,0.257617,
1999-09-27, 02:00:00,VALID,0,VALID,98.0801,VALID,-0.0509425,VALID,19.1714,VALID,133,VALID,0.565245,
1999-09-27, 02:01:00,VALID,0,VALID,98.0649,VALID,-0.0679233,VALID,19.1612,VALID,132,VALID,0.405849,
1999-09-27, 02:02:00,VALID,0,VALID,97.9708,VALID,-0.0509425,VALID,19.1811,VALID,82,VALID,0.665541,
1999-09-27, 02:03:01,VALID,0,VALID,97.8284,VALID,-0.0849042,VALID,19.2097,VALID,171,VALID,0.248047,
1999-09-27, 02:04:00,VALID,0,VALID,97.6605,VALID,-0.0679233,VALID,19.2423,VALID,131,VALID,0.513302,
1999-09-27, 02:05:00,VALID,0,VALID,97.541,VALID,-0.0849042,VALID,19.2714,VALID,91,VALID,0.972957,
1999-09-27, 02:06:00,VALID,0,VALID,97.3757,VALID,-0.0339617,VALID,19.3039,VALID,67,VALID,1.1345,
1999-09-27, 02:07:00,VALID,0,VALID,97.3693,VALID,-0.0679233,VALID,19.3102,VALID,95,VALID,0.811719,
1999-09-27, 02:08:00,VALID,0,VALID,97.3858,VALID,-0.0679233,VALID,19.3104,VALID,92,VALID,0.410684,
1999-09-27, 02:09:00,VALID,0,VALID,97.2981,VALID,-0.0509425,VALID,19.3072,VALID,144,VALID,0.742989,
1999-09-27, 02:10:00,VALID,0,VALID,96.923,VALID,-0.0509425,VALID,19.3425,VALID,85,VALID,1.00739,
1999-09-27, 02:11:00,VALID,0,VALID,96.4461,VALID,-0.0509425,VALID,19.4303,VALID,127,VALID,0.84082,
1999-09-27, 02:12:00,VALID,0,VALID,96.1142,VALID,0.0849042,VALID,19.4736,VALID,111,VALID,0.959882,
1999-09-27, 02:13:01,VALID,0,VALID,95.8917,VALID,0.0509425,VALID,19.5348,VALID,92,VALID,0.701522,
1999-09-27, 02:14:01,VALID,0,VALID,96.0112,VALID,0.0679233,VALID,19.5549,VALID,102,VALID,0.0472973,
1999-09-27, 02:15:00,VALID,0,VALID,96.0125,VALID,0.0679233,VALID,19.5221,VALID,15,VALID,0.168555,
1999-09-27, 02:16:00,VALID,0,VALID,95.8917,VALID,0,VALID,19.5064,VALID,320,VALID,0.649493,
1999-09-27, 02:17:00,VALID,0,VALID,96.0392,VALID,0.0339617,VALID,19.444,VALID,311,VALID,0.195112,
1999-09-27, 02:18:00,VALID,0,VALID,96.5173,VALID,0.0169808,VALID,19.4286,VALID,332,VALID,0.383024,
1999-09-27, 02:19:00,VALID,0,VALID,97.0896,VALID,0.0679233,VALID,19.3637,VALID,330,VALID,0.686914,
1999-09-27, 02:20:00,VALID,0,VALID,97.3337,VALID,0.0339617,VALID,19.2963,VALID,339,VALID,0.88049,
1999-09-27, 02:21:00,VALID,0,VALID,97.5066,VALID,0.0679233,VALID,19.2468,VALID,6,VALID,0.885417,
1999-09-27, 02:22:00,VALID,0,VALID,97.6058,VALID,0.0509425,VALID,19.241,VALID,351,VALID,1.0416,
1999-09-27, 02:23:00,VALID,0,VALID,97.7381,VALID,0.0339617,VALID,19.2209,VALID,302,VALID,0.382813,
1999-09-27, 02:24:00,VALID,0,VALID,97.8474,VALID,0.0509425,VALID,19.2152,VALID,288,VALID,0.172931,
1999-09-27, 02:25:01,VALID,0,VALID,97.8958,VALID,0.0509425,VALID,19.1826,VALID,300,VALID,0.329327,
1999-09-27, 02:26:00,VALID,0,VALID,97.9708,VALID,0.0509425,VALID,19.1791,VALID,13,VALID,0.277449,
1999-09-27, 02:27:00,VALID,0,VALID,97.9593,VALID,0,VALID,19.1774,VALID,318,VALID,0.395703,
1999-09-27, 02:28:00,VALID,0,VALID,97.9631,VALID,0,VALID,19.1545,VALID,250,VALID,0.249367,
1999-09-27, 02:29:00,VALID,0,VALID,97.9797,VALID,0,VALID,19.1478,VALID,253,VALID,0.317107,
1999-09-27, 02:30:00,VALID,0,VALID,97.9733,VALID,-0.0169808,VALID,19.142,VALID,271,VALID,0.311233,
1999-09-27, 02:31:00,VALID,0,VALID,98.0013,VALID,0,VALID,19.1055,VALID,262,VALID,0.267578,
1999-09-27, 02:32:00,VALID,0,VALID,98.0242,VALID,-0.0169808,VALID,19.0963,VALID,255,VALID,0.403716,
1999-09-27, 02:33:00,VALID,0,VALID,98.0611,VALID,0,VALID,19.1035,VALID,282,VALID,0.377204,
1999-09-27, 02:34:00,VALID,0,VALID,98.0483,VALID,0,VALID,19.0933,VALID,260,VALID,0.414485,
1999-09-27, 02:35:00,VALID,0,VALID,98.0331,VALID,0,VALID,19.0734,VALID,245,VALID,0.133594,
1999-09-27, 02:36:01,VALID,0,VALID,98.0458,VALID,-0.0169808,VALID,19.0776,VALID,232,VALID,0.124367,
1999-09-27, 02:37:00,VALID,0,VALID,98.0369,VALID,-0.0339617,VALID,19.0741,VALID,270,VALID,0.39984,
1999-09-27, 02:38:00,VALID,0,VALID,97.9873,VALID,-0.0169808,VALID,19.0642,VALID,262,VALID,0.62141,
1999-09-27, 02:39:00,VALID,0,VALID,97.9403,VALID,-0.0169808,VALID,19.0808,VALID,260,VALID,0.213086,
1999-09-27, 02:40:00,VALID,0,VALID,97.8741,VALID,-0.0339617,VALID,19.0707,VALID,261,VALID,0.19299,
1999-09-27, 02:41:00,VALID,0,VALID,97.8233,VALID,0,VALID,19.0584,VALID,268,VALID,0.341546,
1999-09-27, 02:42:00,VALID,0,VALID,97.8462,VALID,-0.0849042,VALID,19.0582,VALID,280,VALID,0.197424,
1999-09-27, 02:43:00,VALID,0,VALID,97.8398,VALID,-0.0169808,VALID,19.045,VALID,267,VALID,0.29043,
1999-09-27, 02:44:00,VALID,0,VALID,97.7838,VALID,-0.0339617,VALID,19.0485,VALID,300,VALID,0.713471,
1999-09-27, 02:45:00,VALID,0,VALID,97.7266,VALID,-0.0339617,VALID,19.0483,VALID,244,VALID,0.249199,
1999-09-27, 02:46:00,VALID,0,VALID,97.6262,VALID,-0.0339617,VALID,19.0418,VALID,188,VALID,0.143159,
1999-09-27, 02:47:00,VALID,0,VALID,97.5448,VALID,-0.0339617,VALID,19.0159,VALID,136,VALID,0.0824219,
1999-09-27, 02:48:00,VALID,0,VALID,97.5804,VALID,-0.0679233,VALID,18.9963,VALID,179,VALID,0,
1999-09-27, 02:49:00,VALID,0,VALID,97.5804,VALID,-0.0339617,VALID,18.9677,VALID,236,VALID,0.279046,
1999-09-27, 02:50:00,VALID,0,VALID,97.658,VALID,-0.0169808,VALID,18.9455,VALID,251,VALID,0.239865,
1999-09-27, 02:51:00,VALID,0,VALID,97.8652,VALID,0,VALID,18.9386,VALID,270,VALID,0.341211,
1999-09-27, 02:52:00,VALID,0,VALID,97.9797,VALID,0.101885,VALID,18.9369,VALID,275,VALID,0.472551,
1999-09-27, 02:53:00,VALID,0,VALID,97.9479,VALID,0.0849042,VALID,18.9304,VALID,255,VALID,0.0170272,
1999-09-27, 02:54:00,VALID,0,VALID,98.0013,VALID,0.101885,VALID,18.9309,VALID,281,VALID,0.0842483,
1999-09-27, 02:55:00,VALID,0,VALID,98.1145,VALID,0.0509425,VALID,18.9374,VALID,276,VALID,0.287305,
1999-09-27, 02:56:00,VALID,0,VALID,98.0801,VALID,0.0849042,VALID,18.9443,VALID,275,VALID,0.619088,
1999-09-27, 02:57:01,VALID,0,VALID,98.0865,VALID,-0.0679233,VALID,18.9711,VALID,304,VALID,0.785056,
1999-09-27, 02:58:00,VALID,0,VALID,97.9631,VALID,-0.0679233,VALID,19.0162,VALID,266,VALID,0.200521,
1999-09-27, 02:59:00,VALID,0,VALID,97.7152,VALID,-0.0509425,VALID,19.0164,VALID,226,VALID,0.320898,
1999-09-27, 03:00:00,VALID,0,VALID,97.5117,VALID,-0.0169808,VALID,19.0097,VALID,247,VALID,0.00211149,
1999-09-27, 03:01:00,VALID,0,VALID,97.5066,VALID,-0.0169808,VALID,18.9774,VALID,250,VALID,0,
1999-09-27, 03:02:00,VALID,0,VALID,97.4901,VALID,-0.0169808,VALID,18.9418,VALID,257,VALID,0.0945946,
1999-09-27, 03:03:00,VALID,0,VALID,97.6478,VALID,-0.0169808,VALID,18.9485,VALID,282,VALID,0.463281,
1999-09-27, 03:04:00,VALID,0,VALID,97.719,VALID,-0.0169808,VALID,18.949,VALID,280,VALID,0.6856,
1999-09-27, 03:05:00,VALID,0,VALID,97.6745,VALID,-0.0339617,VALID,18.9552,VALID,274,VALID,0.496394,
1999-09-27, 03:06:00,VALID,0,VALID,97.6605,VALID,-0.0679233,VALID,18.9421,VALID,276,VALID,0.493877,
1999-09-27, 03:07:00,VALID,0,VALID,97.5588,VALID,0,VALID,18.9261,VALID,261,VALID,0.402148,
1999-09-27, 03:08:01,VALID,0,VALID,97.6084,VALID,-0.0339617,VALID,18.9159,VALID,262,VALID,0.258657,
1999-09-27, 03:09:00,VALID,0,VALID,97.5944,VALID,-0.0509425,VALID,18.8968,VALID,261,VALID,0.0404647,
1999-09-27, 03:10:00,VALID,0,VALID,97.4138,VALID,-0.0169808,VALID,18.8511,VALID,239,VALID,0.0458193,
1999-09-27, 03:11:00,VALID,0,VALID,97.3884,VALID,0,VALID,18.8028,VALID,231,VALID,0,
1999-09-27, 03:12:00,VALID,0,VALID,97.5257,VALID,-0.0169808,VALID,18.7645,VALID,230,VALID,0,
1999-09-27, 03:13:00,VALID,0,VALID,97.663,VALID,-0.0169808,VALID,18.7259,VALID,229,VALID,0,
1999-09-27, 03:14:00,VALID,0,VALID,97.6643,VALID,-0.0169808,VALID,18.6642,VALID,229,VALID,0,
1999-09-27, 03:15:00,VALID,0,VALID,97.8576,VALID,-0.0169808,VALID,18.6486,VALID,229,VALID,0,
1999-09-27, 03:16:00,VALID,0,VALID,97.9949,VALID,0,VALID,18.6128,VALID,228,VALID,0,
1999-09-27, 03:17:00,VALID,0,VALID,98.0496,VALID,-0.0339617,VALID,18.5871,VALID,228,VALID,0,
1999-09-27, 03:18:00,VALID,0,VALID,98.1399,VALID,0,VALID,18.5483,VALID,228,VALID,0,
1999-09-27, 03:19:00,VALID,0,VALID,97.9492,VALID,-0.0509425,VALID,18.4767,VALID,228,VALID,0,
1999-09-27, 03:20:00,VALID,0,VALID,97.8881,VALID,-0.0679233,VALID,18.4186,VALID,216,VALID,0.129645,
1999-09-27, 03:21:00,VALID,0,VALID,98.0738,VALID,-0.0339617,VALID,18.3763,VALID,183,VALID,0.52504,
1999-09-27, 03:22:00,VALID,0,VALID,98.2429,VALID,-0.0509425,VALID,18.3539,VALID,194,VALID,0.211571,
1999-09-27, 03:23:00,VALID,0,VALID,98.4069,VALID,-0.0679233,VALID,18.3149,VALID,203,VALID,0,
1999-09-27, 03:24:00,VALID,0,VALID,98.6981,VALID,-0.0339617,VALID,18.3218,VALID,203,VALID,0,
1999-09-27, 03:25:00,VALID,0,VALID,98.8698,VALID,-0.0169808,VALID,18.3546,VALID,206,VALID,0,
1999-09-27, 03:26:00,VALID,0,VALID,98.8329,VALID,-0.0339617,VALID,18.3285,VALID,200,VALID,0.357475,
1999-09-27, 03:27:00,VALID,0,VALID,98.9168,VALID,-0.0509425,VALID,18.3287,VALID,175,VALID,0.499023,
1999-09-27, 03:28:00,VALID,0,VALID,98.7884,VALID,-0.0169808,VALID,18.2673,VALID,116,VALID,1.04012,
1999-09-27, 03:29:01,VALID,0,VALID,98.8075,VALID,-0.0679233,VALID,18.2216,VALID,117,VALID,1.21554,
1999-09-27, 03:30:00,VALID,0,VALID,98.9525,VALID,-0.0679233,VALID,18.2248,VALID,143,VALID,0.716639,
1999-09-27, 03:31:00,VALID,0,VALID,99.3492,VALID,0,VALID,18.2902,VALID,177,VALID,0.498047,
1999-09-27, 03:32:00,VALID,0,VALID,99.5514,VALID,-0.0509425,VALID,18.3546,VALID,177,VALID,0.073902,
1999-09-27, 03:33:00,VALID,0,VALID,99.4585,VALID,-0.0339617,VALID,18.3611,VALID,113,VALID,1.01843,
1999-09-27, 03:34:00,VALID,0,VALID,99.2793,VALID,0,VALID,18.2802,VALID,115,VALID,1.82644,
1999-09-27, 03:35:00,VALID,0,VALID,99.4776,VALID,-0.0509425,VALID,18.3414,VALID,119,VALID,1.53594,
1999-09-27, 03:36:00,VALID,0,VALID,99.5234,VALID,-0.0339617,VALID,18.3611,VALID,126,VALID,1.11508,
1999-09-27, 03:37:00,VALID,0,VALID,99.5654,VALID,-0.0339617,VALID,18.3705,VALID,147,VALID,0.885016,
1999-09-27, 03:38:00,VALID,0,VALID,99.6251,VALID,-0.0509425,VALID,18.3929,VALID,136,VALID,0.677998,
1999-09-27, 03:39:00,VALID,0,VALID,99.6671,VALID,-0.0169808,VALID,18.4193,VALID,125,VALID,0.674805,
1999-09-27, 03:40:00,VALID,0,VALID,99.6696,VALID,0,VALID,18.4128,VALID,144,VALID,0.543708,
1999-09-27, 03:41:01,VALID,0,VALID,99.6442,VALID,-0.0509425,VALID,18.3929,VALID,186,VALID,0.357772,
1999-09-27, 03:42:00,VALID,0,VALID,99.62,VALID,-0.0509425,VALID,18.374,VALID,163,VALID,0.753801,
1999-09-27, 03:43:00,VALID,0,VALID,99.4624,VALID,-0.0169808,VALID,18.2738,VALID,144,VALID,0.6375,
1999-09-27, 03:44:00,VALID,0,VALID,99.5463,VALID,-0.0679233,VALID,18.2738,VALID,183,VALID,0.50739,
1999-09-27, 03:45:00,VALID,0,VALID,99.559,VALID,-0.0679233,VALID,18.2507,VALID,228,VALID,0.982973,
1999-09-27, 03:46:00,VALID,0,VALID,99.7447,VALID,-0.0509425,VALID,18.2964,VALID,243,VALID,0.796664,
1999-09-27, 03:47:00,VALID,0,VALID,99.8527,VALID,-0.0849042,VALID,18.3511,VALID,242,VALID,1.0877,
1999-09-27, 03:48:00,VALID,0,VALID,99.8744,VALID,-0.0169808,VALID,18.3934,VALID,235,VALID,0.690456,
1999-09-27, 03:49:00,VALID,0,VALID,99.8299,VALID,-0.0339617,VALID,18.3805,VALID,253,VALID,0.502204,
1999-09-27, 03:50:00,VALID,0,VALID,99.7841,VALID,-0.0169808,VALID,18.3514,VALID,243,VALID,0.510346,
1999-09-27, 03:51:00,VALID,0,VALID,99.7663,VALID,-0.0339617,VALID,18.3255,VALID,232,VALID,1.2084,
1999-09-27, 03:52:00,VALID,0,VALID,99.8477,VALID,-0.0679233,VALID,18.319,VALID,228,VALID,1.15203,
1999-09-27, 03:53:00,VALID,0,VALID,99.8464,VALID,-0.0169808,VALID,18.3061,VALID,213,VALID,0.56871,
1999-09-27, 03:54:00,VALID,0,VALID,99.8922,VALID,-0.0849042,VALID,18.2932,VALID,211,VALID,0.665329,
1999-09-27, 03:55:00,VALID,0,VALID,99.943,VALID,-0.0679233,VALID,18.3059,VALID,212,VALID,0.534961,
1999-09-27, 03:56:00,VALID,0,VALID,99.9934,VALID,0,VALID,18.3324,VALID,224,VALID,0.466427,
1999-09-27, 03:57:00,VALID,0,VALID,99.9954,VALID,-0.0509425,VALID,18.335,VALID,224,VALID,0.377204,
1999-09-27, 03:58:00,VALID,0,VALID,99.9931,VALID,-0.0509425,VALID,18.3449,VALID,211,VALID,0.0489865,
1999-09-27, 03:59:00,VALID,0,VALID,99.944,VALID,-0.0169808,VALID,18.3257,VALID,110,VALID,0.563672,
1999-09-27, 04:00:00,VALID,0,VALID,99.896,VALID,0,VALID,18.2445,VALID,116,VALID,0.292652,
1999-09-27, 04:01:00,VALID,0,VALID,99.929,VALID,-0.0509425,VALID,18.2341,VALID,188,VALID,0.0997596,
1999-09-27, 04:02:00,VALID,0,VALID,99.9647,VALID,-0.0339617,VALID,18.2544,VALID,197,VALID,0,